| time (UTC) | temp C | wind direction | speed KPH | gust KPH | rain 1hr cm | rain 24hr cm | rain mn cm | humidity % | barometer mb |
| 20260902150052 | 18 | 0 | 0.0 | 0.0 | 0.00 | 0.43 | 0.08 | 98 | 1021.0 |
| 20260902144548 | 18 | 0 | 0.0 | 0.0 | 0.00 | 0.53 | 0.08 | 99 | 1020.7 |
| 20260902143101 | 17 | 0 | 0.0 | 0.0 | 0.00 | 0.53 | 0.08 | 100 | 1020.7 |
| 20260902141554 | 17 | 0 | 0.0 | 0.0 | 0.00 | 0.53 | 0.08 | 99 | 1020.8 |
| 20260902140052 | 17 | 0 | 0.0 | 0.0 | 0.00 | 0.53 | 0.08 | 100 | 1020.8 |
| 20260902134555 | 17 | 0 | 0.0 | 0.0 | 0.00 | 0.53 | 0.08 | 100 | 1020.9 |
| 20260902133105 | 17 | 0 | 0.0 | 0.0 | 0.00 | 0.53 | 0.08 | 100 | 1020.7 |
| 20260902131556 | 17 | 0 | 0.0 | 0.0 | 0.00 | 0.53 | 0.08 | 100 | 1020.3 |
| 20260902130051 | 17 | 0 | 0.0 | 0.0 | 0.00 | 0.53 | 0.08 | 100 | 1020.3 |
| 20260902124549 | 16 | 0 | 0.0 | 0.0 | 0.00 | 0.53 | 0.08 | 100 | 1020.4 |
| 20260902123053 | 16 | 0 | 0.0 | 0.0 | 0.00 | 0.53 | 0.08 | 100 | 1020.2 |
| 20260902121553 | 16 | 0 | 0.0 | 0.0 | 0.00 | 0.53 | 0.08 | 100 | 1020.1 |
| 20260902120050 | 17 | 0 | 0.0 | 0.0 | 0.00 | 0.53 | 0.08 | 100 | 1020.2 |
| 20260902114549 | 17 | 0 | 0.0 | 0.0 | 0.00 | 0.53 | 0.08 | 100 | 1020.1 |
| 20260902113049 | 17 | 0 | 0.0 | 1.6 | 0.00 | 0.53 | 0.08 | 100 | 1020.1 |
| 20260902111605 | 17 | 0 | 0.0 | 0.0 | 0.00 | 0.53 | 0.08 | 100 | 1019.9 |
| 20260902110053 | 17 | 0 | 0.0 | 0.0 | 0.00 | 0.53 | 0.08 | 100 | 1019.9 |
| 20260902104615 | 17 | 0 | 0.0 | 0.0 | 0.00 | 0.53 | 0.08 | 100 | 1019.9 |
| 20260902103059 | 17 | 0 | 0.0 | 0.0 | 0.00 | 0.53 | 0.08 | 100 | 1020.0 |
| 20260902101553 | 17 | 0 | 0.0 | 0.0 | 0.00 | 0.53 | 0.08 | 100 | 1019.6 |
| 20260902100055 | 17 | 0 | 0.0 | 0.0 | 0.03 | 0.53 | 0.08 | 99 | 1019.5 |
| 20260902094551 | 17 | 0 | 0.0 | 1.6 | 0.03 | 0.53 | 0.08 | 100 | 1019.5 |
| 20260902093105 | 17 | 0 | 0.0 | 0.0 | 0.03 | 0.53 | 0.08 | 100 | 1019.3 |
| 20260902091553 | 17 | 0 | 0.0 | 0.0 | 0.05 | 0.53 | 0.08 | 100 | 1019.4 |
| 20260902090051 | 17 | 0 | 0.0 | 0.0 | 0.03 | 0.51 | 0.05 | 100 | 1019.4 |
| 20260902084549 | 17 | 0 | 0.0 | 0.0 | 0.03 | 0.51 | 0.05 | 99 | 1019.4 |
| 20260902083058 | 17 | 0 | 0.0 | 0.0 | 0.03 | 0.51 | 0.05 | 99 | 1019.1 |
| 20260902081554 | 17 | 0 | 0.0 | 0.0 | 0.00 | 0.48 | 0.03 | 99 | 1018.8 |
| 20260902080051 | 17 | 0 | 0.0 | 0.0 | 0.00 | 0.48 | 0.03 | 99 | 1018.7 |
| 20260902074609 | 17 | 0 | 0.0 | 4.8 | 0.00 | 0.48 | 0.03 | 99 | 1018.5 |
| 20260902073102 | 17 | 0 | 0.0 | 4.8 | 0.00 | 0.48 | 0.03 | 99 | 1018.5 |
| 20260902071554 | 17 | 0 | 0.0 | 0.0 | 0.00 | 0.48 | 0.03 | 99 | 1018.3 |
| 20260902070105 | 17 | 0 | 0.0 | 0.0 | 0.03 | 0.48 | 0.03 | 99 | 1018.4 |
| 20260902064555 | 17 | 0 | 0.0 | 0.0 | 0.03 | 0.74 | 0.03 | 99 | 1018.5 |
| 20260902063059 | 17 | 0 | 0.0 | 0.0 | 0.03 | 0.74 | 0.03 | 99 | 1018.7 |
| 20260902060058 | 17 | 0 | 0.0 | 0.0 | 0.00 | 0.71 | 0.00 | 99 | 1018.8 |
| 20260902054613 | 17 | 0 | 0.0 | 0.0 | 0.00 | 0.91 | 0.00 | 98 | 1018.9 |
| 20260902053106 | 17 | 0 | 0.0 | 0.0 | 0.00 | 0.91 | 0.00 | 98 | 1018.7 |
| 20260902051556 | 17 | 0 | 0.0 | 0.0 | 0.00 | 0.91 | 0.00 | 98 | 1018.5 |
| 20260902050106 | 17 | 0 | 0.0 | 0.0 | 0.00 | 0.91 | 0.00 | 98 | 1018.7 |
| 20260902044607 | 17 | 0 | 0.0 | 0.0 | 0.00 | 1.65 | 0.00 | 98 | 1018.8 |
| 20260902043105 | 17 | 0 | 0.0 | 0.0 | 0.00 | 1.65 | 0.00 | 97 | 1018.6 |
| 20260902041556 | 18 | 0 | 0.0 | 0.0 | 0.00 | 1.65 | 0.00 | 97 | 1018.6 |
| 20260902040107 | 18 | 0 | 0.0 | 6.4 | 0.00 | 1.65 | 0.00 | 97 | 1018.5 |
| 20260902034605 | 18 | 0 | 0.0 | 3.2 | 0.00 | 1.80 | 1.65 | 97 | 1018.2 |
| 20260902033059 | 18 | 0 | 0.0 | 1.6 | 0.00 | 1.80 | 1.65 | 97 | 1017.9 |
| 20260902031601 | 18 | 0 | 0.0 | 1.6 | 0.00 | 1.80 | 1.65 | 97 | 1017.6 |
| 20260902024600 | 18 | 0 | 0.0 | 4.8 | 0.00 | 1.80 | 1.65 | 97 | 1017.4 |
| 20260902023108 | 18 | 0 | 0.0 | 0.0 | 0.00 | 1.80 | 1.65 | 97 | 1017.4 |
| 20260902021553 | 18 | 0 | 0.0 | 6.4 | 0.00 | 1.80 | 1.65 | 97 | 1017.2 |
| 20260902014556 | 18 | 0 | 0.0 | 1.6 | 0.00 | 1.80 | 1.65 | 98 | 1017.1 |
| 20260902013055 | 18 | 0 | 0.0 | 1.6 | 0.00 | 1.80 | 1.65 | 97 | 1016.4 |
| 20260902011549 | 19 | 0 | 0.0 | 1.6 | 0.00 | 1.80 | 1.65 | 97 | 1016.2 |
| 20260902010048 | 19 | 0 | 0.0 | 6.4 | 0.08 | 1.80 | 1.65 | 97 | 1016.0 |
| 20260902004601 | 20 | 0 | 1.6 | 14.5 | 0.08 | 1.80 | 1.65 | 96 | 1015.7 |
| 20260902003059 | 20 | 0 | 0.0 | 6.4 | 0.08 | 1.80 | 1.65 | 96 | 1015.8 |
| 20260902001603 | 21 | 0 | 1.6 | 12.9 | 0.08 | 1.80 | 1.65 | 95 | 1015.2 |
| 20260902000106 | 21 | 0 | 0.0 | 14.5 | 0.00 | 1.73 | 1.57 | 95 | 1015.0 |
| 20260901234557 | 22 | 0 | 0.0 | 9.7 | 0.00 | 1.73 | 1.57 | 95 | 1014.8 |
| 20260901233058 | 22 | 69 | 0.0 | 6.4 | 0.00 | 1.73 | 1.57 | 95 | 1014.8 |
| 20260901231554 | 23 | 0 | 0.0 | 3.2 | 0.00 | 1.73 | 1.57 | 95 | 1014.8 |
| 20260901224559 | 24 | 0 | 0.0 | 8.0 | 0.00 | 1.73 | 1.57 | 94 | 1014.4 |
| 20260901223056 | 25 | 0 | 0.0 | 3.2 | 0.00 | 1.73 | 1.57 | 93 | 1013.8 |
| 20260901221600 | 25 | 0 | 0.0 | 0.0 | 0.00 | 1.73 | 1.57 | 92 | 1013.9 |
| 20260901220056 | 25 | 0 | 0.0 | 1.6 | 0.00 | 1.73 | 1.57 | 91 | 1014.0 |
| 20260901214548 | 25 | 0 | 0.0 | 1.6 | 0.00 | 1.73 | 1.57 | 90 | 1014.0 |
| 20260901213055 | 26 | 0 | 0.0 | 1.6 | 0.00 | 1.73 | 1.57 | 89 | 1014.2 |
| 20260901211554 | 26 | 0 | 0.0 | 0.0 | 0.00 | 1.73 | 1.57 | 89 | 1014.2 |
| 20260901210100 | 26 | 0 | 0.0 | 0.0 | 0.00 | 1.73 | 1.57 | 90 | 1014.1 |
| 20260901204558 | 25 | 0 | 0.0 | 0.0 | 0.00 | 1.73 | 1.57 | 93 | 1014.1 |
| 20260901203103 | 25 | 0 | 0.0 | 0.0 | 0.00 | 1.73 | 1.57 | 93 | 1014.1 |
| 20260901201603 | 25 | 0 | 0.0 | 0.0 | 0.00 | 1.73 | 1.57 | 92 | 1014.1 |
| 20260901200100 | 25 | 0 | 0.0 | 0.0 | 0.00 | 1.73 | 1.57 | 89 | 1014.2 |
| 20260901194601 | 26 | 0 | 0.0 | 0.0 | 0.00 | 1.73 | 1.57 | 87 | 1014.3 |
| 20260901193054 | -17 | 0.0 | 0.0 | 0.00 | 1.73 | 1.57 | 1014.1 | ||
| 20260901191601 | 25 | 0 | 0.0 | 4.8 | 0.03 | 1.73 | 1.57 | 91 | 1014.2 |
| 20260901190048 | 25 | 0 | 0.0 | 8.0 | 0.03 | 1.73 | 1.57 | 90 | 1014.2 |
| 20260901184557 | 25 | 0 | 0.0 | 3.2 | 0.00 | 1.70 | 1.55 | 93 | 1014.3 |
| 20260901183054 | 24 | 0 | 0.0 | 6.4 | 0.00 | 1.70 | 1.55 | 95 | 1014.2 |
| 20260901181559 | 23 | 0 | 0.0 | 6.4 | 0.00 | 1.70 | 1.55 | 97 | 1014.3 |
| 20260901180058 | 23 | 0 | 0.0 | 1.6 | 0.03 | 1.70 | 1.55 | 99 | 1014.2 |
| 20260901174554 | 23 | 0 | 0.0 | 8.0 | 0.05 | 1.70 | 1.55 | 100 | 1014.2 |
| 20260901173100 | 23 | 168 | 1.6 | 9.7 | 0.08 | 1.70 | 1.55 | 100 | 1014.1 |
| 20260901171604 | 22 | 0 | 0.0 | 0.0 | 0.08 | 1.70 | 1.55 | 100 | 1014.4 |
| 20260901170052 | 22 | 0 | 0.0 | 1.6 | 0.03 | 1.65 | 1.47 | 100 | 1014.8 |
| 20260901164550 | 22 | 0 | 0.0 | 0.0 | 0.03 | 1.65 | 1.47 | 100 | 1014.5 |
| 20260901163059 | 22 | 0 | 0.0 | 0.0 | 0.05 | 1.63 | 1.47 | 100 | 1015.2 |
| 20260901161608 | 22 | 0 | 0.0 | 0.0 | 0.10 | 1.63 | 1.47 | 100 | 1015.2 |
| 20260901160108 | 22 | 0 | 0.0 | 1.6 | 0.15 | 1.63 | 1.47 | 100 | 1015.0 |
| 20260901154557 | 21 | 0 | 0.0 | 1.6 | 0.20 | 1.63 | 1.47 | 100 | 1015.3 |
| 20260901153100 | 21 | 0 | 0.0 | 1.6 | 0.18 | 1.57 | 1.42 | 100 | 1015.9 |
| 20260901151557 | 21 | 0 | 0.0 | 1.6 | 0.15 | 1.52 | 1.37 | 100 | 1016.1 |